Regional Weather Roundup
Issued by NWS Charleston, SC

Current Version | Previous Version | Text Only | Print | Product List | Glossary On
Versions: 1 2 3 4 5 6 7 8 9 10 11 12 13 14 15 16 17 18 19 20 21 22 23 24 25 26 27 28 29 30 31 32 33 34 35 36 37 38 39 40 41 42 43 44 45 46 47 48 49 50
023
ASUS42 KCHS 010413
RWRCHS

REGIONAL WEATHER ROUNDUP
NATIONAL WEATHER SERVICE CHARLESTON SC
1200 AM EDT FRI JUL 01 2016

NOTE: "FAIR" INDICATES FEW OR NO CLOUDS BELOW 12,000 FEET WITH NO
SIGNIFICANT WEATHER AND/OR OBSTRUCTIONS TO VISIBILITY.

NOT ALL STATIONS ARE QUALITY CONTROLLED. USE DATA WITH CAUTION...
ESPECIALLY DEWPOINT OBSERVATIONS.

SCZ027-030-031-034>040-042>050-010500-
...SOUTHEAST SOUTH CAROLINA...

CITY           SKY/WX    TMP DP  RH WIND       PRES   REMARKS
N CHARLESTON   CLOUDY    79  74  84 S3        30.03R
WATERFRONT PRK   N/A     80  77  90 CALM      30.00R
MOUNT PLEASANT FAIR      79  75  89 CALM      30.03R
JOHNS ISLAND   FAIR      79  77  94 CALM      30.03R
PINOPOLIS        N/A     82  77  83 CALM      29.95S HX  91
MONCKS CORNER  FAIR      73  72  94 CALM      30.03S FOG
SUMMERVILLE    FAIR      75  75 100 CALM      30.04R
BEAUFORT MCAS  CLOUDY    76  74  93 VRB6      30.02R
BEAUFORT ARPT  NOT AVBL
HILTON HEAD IS CLOUDY    79  79 100 S5G14     30.02S
WALTERBORO     CLOUDY    73  73 100 CALM      30.04R
ALLENDALE      FAIR      73  72  94 CALM      30.02R

...SOUTHERN MIDLANDS AND PEE DEE...

CITY           SKY/WX    TMP DP  RH WIND       PRES   REMARKS
GEORGETOWN     NOT AVBL
KINGSTREE      CLOUDY    75  73  94 CALM      30.03R
ORANGEBURG     CLOUDY    74  69  85 S5        30.03R
BARNWELL       FAIR      73  73 100 CALM      30.03R
AIKEN          FAIR      70  68  94 S5        30.05S
MANNING        FAIR      75  72  88 S3        30.03R
COLUMBIA       MOCLDY    74  68  81 S5        30.01R
SUMTER         CLOUDY    74  69  83 SE5       30.00R
FLORENCE       MOCLDY    78  74  87 SW9       30.01F
MYRTLE BEACH   CLOUDY    81  70  69 W3        30.04S
N MYRTLE BEACH MOCLDY    80  75  84 W5        30.02S

$$

GAZ063-065-086>088-099>101-113>116-118-119-134>141-150-010500-
...SOUTHEAST GEORGIA...

CITY           SKY/WX    TMP DP  RH WIND       PRES   REMARKS
SAVANNAH ARPT  CLOUDY    75  72  90 S6        30.02S
HUNTER AAF     CLOUDY    75  75 100 S2        29.99F
FORT STEWART   CLOUDY    74  73  95 CALM      30.00S
STATESBORO     CLOUDY    74  73  99 CALM      30.02S
SYLVANIA       CLOUDY    75  73  93 CALM      30.04R
CLAXTON        FAIR      74  74 100 CALM      30.02S

...CSRA...CENTRAL AND FAR SOUTHEAST GEORGIA...

CITY           SKY/WX    TMP DP  RH WIND       PRES   REMARKS
THOMSON        CLOUDY    77  76  97 S3        30.06S
AUGUSTA-BUSH   PTCLDY    72  69  90 S3        30.01R
AUGUSTA-DANIEL CLOUDY    76  68  76 S6        30.03R
SWAINSBORO     FAIR      73  72  94 S3        30.03S
VIDALIA        MOCLDY    73  72  94 CALM      30.02F
EASTMAN        FAIR      76  76  99 CALM      30.05S
HAZLEHURST     FAIR      77  77 100 CALM      30.02S
ALMA           CLOUDY    76  75  97 S3        30.02F
WAYCROSS       RAIN      80  80 100 CALM      30.03S
JESUP          FAIR      75  75 100 CALM      30.02F
BAXLEY         CLOUDY    77  77 100 CALM      30.02F
BRUNSWICK      CLOUDY    77  77 100 CALM      30.03F FOG
SAINT SIMONS   CLOUDY    82  74  76 S7        30.02F

$$

SCZ027-028-034-036>038-045-046-048>050-GAZ119-141-010500-
...LAKE AND SUPPLEMENTAL COASTAL OBSERVATIONS...

STATION/POSITION TIME  TEMP    WIND        PRES    WAVE   SWELL
                       AIR SEA DIR/SP/G            HT/PER HT/PER/DIR
                 (UTC) (F)     (DEG/KT/KT) (MB)    (FT/S) (FT/S/D)
WINYAH BAY       NOT AVBL
LAKE MURRAY      0300   77     180/  7/ 10 1015.2S
ACE BASIN NERRS  NOT AVBL
FORT PULASKI     0300   78 84                N/A
SAPELO ISLAND    0300   79     160/  5     1017.0S

$$

ANZ835-935-AMZ111-154-330-350-352-354-370-450-454-472-010500-
...C-MAN AND BUOY OBSERVATIONS...

STATION/POSITION TIME  TEMP    WIND        PRES    WAVE   SWELL
                       AIR SEA DIR/SP/G            HT/PER HT/PER/DIR
                 (UTC) (F)     (DEG/KT/KT) (MB)    (FT/S) (FT/S/D)
BUOY 41004       0350   82 82  190/ 16/ 19 1015.9S   3/ 4   2/120/ 8
BUOY 41008       0350   83 84  160/ 14/ 16 1016.3F   2/ 9   2/ 90/ 9
FOLLY BEACH CMAN 0300   81     200/ 10/ 12 1016.4R
CAPERS NEARSHORE 0308   82 83  210/ 14/ 17 1016.2R
FRIPP NEARSHORE  0308   81 83              1015.3F


STATION/POSITION TIME  TEMP    WIND        PRES    WAVE   SWELL
                       AIR SEA DIR/SP/G            HT/PER HT/PER/DIR
                 (UTC) (F)     (DEG/KT/KT) (MB)    (FT/S) (FT/S/D)
5E ST. MARYS GA  0401      84                N/A     2/ 8
FRYING PAN BUOY  0300   82 82  210/ 12/ 14 1016.6R
BUOY 41025       0350   80 82  220/ 12/ 14 1017.6R   3/ 7   2/120/ 7
CAPE LOOKOUT NC  0300   80     220/  9/ 10 1017.1R
BUOY 41002       0350   79 79  170/ 10/ 12 1019.5S   3/ 6   3/200/ 6
BUOY 41010       0320   83 83  150/ 16/ 19 1018.2F
ST AUGUSTINE FL  0400   77 84  200/  5/  6 1018.1R


$$




USA.gov is the U.S. government's official web portal to all federal, state and local government web resources and services.